Temp
21 21 21 21 21 21 21 21 20 21 21 20 21 21 22 22 22 23 22 22 22 22 22 23 23 23 23 23 23 23 23 23 23 23 23 23 23 23 23 23 22 22 22 22 22 22 22 23 23 23 22 22 22 22 21 21 21 22 21 21 21 21 21 21 21 21 21 21 22 22 22 21 21 22 21 21 21 20 20 20 21 21 20 20 21
21 21 21 21 21 21 21 21 21 21 21 21 22 22 22 22 22 22 22 22 22 22 22 23 23 23 23 23 23 23 23 23 23 23 23 23 23 23 23 23 22 22 23 22 22 22 22 23 23 22 22 22 22 22 22 21 22 22 21 21 21 21 22 22 21 21 21 21 21 21 22 22 21 22 22 21 21 20 20 21 21 21 21 20 21
22 21 21 21 21 21 21 21 21 21 21 22 21 22 22 22 22 22 22 22 22 22 22 23 23 23 23 23 23 23 23 23 23 23 23 23 23 23 23 22 23 23 23 23 22 22 22 23 23 22 22 22 22 22 22 22 22 21 22 22 22 22 21 22 22 22 21 21 21 21 21 21 22 22 22 21 21 21 20 21 21 21 21 20 21
22 22 22 22 21 21 22 22 22 22 22 22 22 22 22 22 22 22 22 22 22 22 22 23 23 23 23 23 23 23 23 23 23 23 23 23 23 23 23 23 23 23 23 23 23 23 22 23 22 22 22 22 22 22 22 22 22 21 22 22 22 22 22 22 21 22 22 21 21 21 21 21 21 21 21 21 21 21 21 21 21 21 21 20 21
22 22 22 22 21 22 22 22 22 22 22 22 22 22 22 22 22 22 22 22 22 22 22 23 23 23 23 23 23 23 23 23 23 23 23 23 23 23 23 23 23 23 23 23 23 23 23 23 22 22 22 22 22 22 22 22 22 21 22 22 21 21 22 22 22 22 22 22 22 21 21 22 21 21 21 21 21 21 21 21 20 20 20 20 21
22 22 22 22 22 22 22 22 22 22 22 22 22 22 22 22 22 22 22 22 22 22 23 23 23 23 23 23 23 23 23 23 23 23 23 23 23 23 23 23 23 23 23 23 23 23 23 23 22 22 22 22 22 22 22 22 21 21 21 22 22 22 22 22 22 22 22 22 22 22 22 22 22 21 21 21 21 21 21 20 20 20 20 20 21
23 22 22 22 22 22 22 22 22 22 22 22 22 22 22 22 22 22 22 22 22 22 23 23 23 23 23 23 23 23 23 23 23 23 23 23 23 23 23 23 23 23 23 23 23 23 23 23 23 23 23 22 22 22 22 22 22 21 21 21 21 22 22 22 22 22 22 22 23 23 23 23 23 22 21 21 21 21 21 20 20 20 21 20 20
23 23 23 22 22 22 22 22 22 22 22 22 22 22 22 22 22 22 22 22 22 22 23 23 23 23 23 23 23 23 23 23 23 23 23 23 23 23 23 23 23 23 23 23 23 23 23 23 23 23 23 23 22 22 22 22 22 22 21 21 21 21 22 22 22 22 22 22 23 23 23 23 23 22 21 21 21 21 21 21 20 20 21 21 20
23 23 23 23 22 22 22 22 22 22 22 22 22 22 22 22 22 22 22 22 22 22 23 23 23 23 23 23 23 23 23 23 23 23 23 23 23 23 23 23 23 23 23 23 23 23 23 23 23 23 23 22 22 22 22 22 22 22 22 21 21 21 22 22 22 22 22 23 23 23 23 23 23 22 21 21 21 21 21 21 20 20 21 21 20
23 23 23 23 22 22 22 22 22 22 22 22 22 22 22 22 22 22 22 23 23 23 23 23 23 23 23 23 23 23 23 23 23 23 23 23 23 23 23 23 23 23 23 23 23 23 23 23 23 22 22 22 22 22 22 22 22 22 22 22 22 22 22 22 22 22 22 23 23 23 23 23 23 22 21 21 21 21 21 20 20 20 21 21 20
23 23 23 23 23 23 22 22 22 22 22 22 22 22 22 22 22 22 23 23 23 23 23 23 23 23 23 23 23 23 23 23 23 23 23 23 23 23 23 23 23 23 23 23 23 23 23 23 23 22 22 22 22 22 22 22 22 22 22 22 22 22 22 22 22 22 22 23 23 23 23 23 23 22 22 21 21 21 21 21 21 20 20 21 20
23 23 23 23 23 23 23 22 22 22 23 22 22 22 22 22 22 22 22 23 23 23 23 23 23 23 23 23 23 23 23 23 23 23 23 23 23 23 23 23 23 23 23 23 23 23 22 22 22 22 22 22 22 22 22 22 22 22 22 22 22 22 22 22 22 22 22 23 23 23 23 23 22 22 22 22 21 21 21 21 21 20 20 20 20
24 23 23 23 23 23 23 22 22 23 23 22 22 23 22 22 22 22 22 23 23 23 23 23 23 23 23 23 23 23 23 23 23 23 23 23 23 23 23 23 23 23 23 23 23 23 22 22 22 22 22 22 22 22 22 21 21 22 22 22 22 22 22 22 22 22 22 22 22 22 23 23 22 22 22 22 21 21 21 21 21 21 20 20 20
24 23 23 23 23 23 23 22 23 23 23 23 22 23 22 22 22 22 22 22 23 23 23 23 23 23 23 23 23 23 23 23 23 23 23 23 23 23 23 23 23 23 23 23 23 22 22 22 22 22 22 22 22 22 22 22 21 22 22 22 22 22 22 22 22 22 22 22 22 22 22 22 22 22 22 22 22 21 21 21 21 20 21 20 20
25 24 24 23 23 23 23 23 23 23 22 23 22 22 22 22 22 22 22 22 23 23 23 23 23 23 23 23 23 23 23 23 23 23 23 23 23 23 23 23 23 23 23 23 23 23 22 22 22 23 22 22 22 22 22 22 22 22 22 22 22 22 22 22 22 22 22 22 22 22 22 22 22 22 22 22 22 21 21 21 21 21 21 21 20
26 25 25 23 23 22 23 23 23 23 23 23 22 23 22 22 22 22 22 22 23 23 23 23 23 23 23 23 23 23 23 23 23 23 23 23 23 23 23 23 23 23 24 23 23 23 22 22 23 23 23 22 22 22 23 23 23 23 22 22 22 22 22 22 22 21 22 22 22 22 22 22 22 22 22 22 22 21 21 21 21 21 21 21 21
26 25 25 24 23 23 23 22 23 23 23 23 22 23 23 22 22 22 22 22 23 23 23 23 23 23 23 23 23 23 23 23 23 23 23 23 23 23 23 23 23 23 24 23 23 23 22 22 23 23 23 23 23 23 23 23 23 23 23 23 22 22 23 23 22 21 22 22 22 22 22 22 22 22 22 22 22 21 21 21 21 21 21 20 21
26 25 25 24 24 23 23 23 23 23 23 23 23 23 23 22 22 22 22 23 23 23 23 23 23 23 23 23 23 23 23 23 23 23 23 23 23 23 23 23 23 23 23 23 23 23 23 23 23 23 23 23 23 23 23 23 23 23 23 23 23 23 23 23 22 22 22 22 22 22 22 22 22 22 22 22 22 21 21 21 21 21 21 20 20
25 25 25 24 24 24 24 23 23 23 23 23 23 23 23 23 22 22 22 23 23 23 23 23 23 23 23 23 23 23 23 23 23 23 23 23 23 22 23 23 23 23 23 23 23 23 23 23 23 23 23 23 23 24 24 24 24 23 23 23 23 23 23 23 23 23 22 22 22 22 22 22 22 22 22 21 21 21 21 21 21 21 21 20 20
25 25 25 25 25 25 24 24 23 23 23 23 23 23 23 23 22 22 22 22 23 23 23 23 23 23 23 23 23 23 23 23 23 23 23 23 23 22 23 23 24 24 23 24 23 23 23 23 23 23 23 23 24 24 24 24 24 24 23 23 23 23 23 23 23 23 22 22 22 22 22 22 22 22 22 21 21 21 21 21 21 21 21 21 21
26 26 26 26 25 25 25 24 24 23 23 24 23 23 23 23 23 23 23 23 23 23 23 23 23 23 23 23 23 23 22 23 23 23 23 23 23 23 23 24 24 24 23 23 23 23 23 24 24 24 24 24 24 23 23 24 24 24 24 24 23 23 23 23 23 23 23 22 22 22 22 22 22 22 22 22 21 21 21 21 21 21 21 21 21
27 26 26 26 26 25 25 24 24 24 24 24 23 23 23 23 23 23 23 23 23 23 23 23 23 23 23 23 23 23 23 23 23 23 23 23 23 23 24 24 24 24 23 23 23 24 24 24 24 24 24 24 24 24 24 24 24 24 24 24 24 24 24 24 24 23 23 23 22 23 22 22 22 22 22 22 22 21 21 21 21 21 21 21 21
27 27 26 26 26 25 25 25 24 24 24 24 24 23 23 23 23 23 23 23 23 23 23 23 23 23 23 23 23 23 23 23 23 23 23 23 23 24 24 24 24 24 23 23 23 24 24 24 24 24 24 24 24 24 24 24 24 24 24 24 24 25 24 24 24 23 23 23 23 23 22 22 22 22 22 22 22 21 21 21 21 21 21 21 21
27 27 27 26 26 26 25 25 25 24 24 25 24 24 24 24 23 23 23 23 23 23 23 23 23 23 23 23 24 24 23 24 23 23 24 24 24 24 24 24 23 23 23 23 24 24 24 24 24 24 24 24 24 24 25 25 25 25 25 25 25 25 25 25 25 24 23 23 23 23 23 22 22 22 22 22 22 21 21 21 21 21 21 21 21
28 28 27 26 26 26 26 25 25 25 25 25 25 24 24 24 24 24 24 24 24 24 24 24 24 24 24 24 24 25 25 25 24 24 24 24 24 24 24 24 23 24 24 23 23 24 24 24 24 24 24 24 25 25 25 25 25 25 25 25 25 25 25 25 25 24 23 22 23 23 23 23 22 22 22 22 22 22 21 21 21 21 21 21 21
28 28 27 27 26 26 26 25 25 25 25 25 25 25 25 25 25 25 25 25 25 25 25 25 24 24 24 25 25 25 25 25 25 25 25 25 25 25 24 24 24 24 24 24 23 24 24 25 25 25 24 25 25 25 24 24 24 24 24 24 24 24 24 25 25 25 24 23 23 22 22 23 23 22 22 22 22 22 22 21 21 21 21 21 21
28 28 27 27 26 26 26 26 25 25 25 25 25 25 25 25 25 25 25 25 25 25 25 25 25 25 24 25 25 26 26 26 26 25 25 25 25 26 25 24 24 24 24 24 24 25 25 25 25 25 25 25 25 24 24 24 24 24 24 24 24 24 24 24 24 24 24 23 23 23 22 22 23 22 22 22 22 21 22 22 22 21 21 21 21
28 28 28 27 27 27 26 26 26 25 25 25 25 26 25 26 26 25 26 26 26 26 26 26 26 25 24 25 25 26 26 26 26 26 26 26 26 26 25 25 25 25 24 25 25 25 25 25 25 24 24 24 24 24 24 24 24 24 25 25 25 25 25 25 25 25 25 24 23 23 22 22 22 22 22 22 22 21 21 21 22 21 21 21 21
28 28 28 28 27 27 26 26 26 25 25 25 25 26 26 26 26 26 26 26 26 26 26 26 26 25 25 24 25 25 26 26 26 26 26 26 25 25 25 26 26 25 25 25 25 25 25 25 25 24 24 24 24 24 24 24 25 26 26 26 25 25 26 25 25 25 25 25 24 23 22 22 22 22 22 22 22 21 21 21 21 21 21 21 21
29 28 28 28 28 27 26 26 26 25 25 26 26 26 26 26 26 26 26 26 26 26 26 26 26 26 26 25 24 25 25 26 26 26 26 25 25 25 25 25 25 25 25 25 25 25 25 25 24 24 24 24 24 23 24 25 26 26 26 25 25 25 26 25 25 25 25 25 25 23 23 22 22 22 22 22 22 21 21 21 21 21 21 21 21
29 28 28 28 28 27 27 26 26 26 26 26 26 26 26 26 26 26 26 26 26 26 26 26 26 26 26 25 24 24 25 25 25 25 25 25 25 25 25 25 25 25 25 25 25 25 25 24 24 24 24 24 24 23 24 25 26 26 26 25 25 25 25 25 26 26 26 26 25 24 23 23 22 22 22 22 22 22 22 21 21 21 21 21 21
29 29 29 28 28 28 27 27 26 26 25 26 26 26 26 25 26 26 26 26 25 26 26 26 26 26 26 25 24 24 24 25 24 24 25 25 25 25 25 25 25 25 25 24 24 24 24 24 23 23 23 24 24 24 24 25 26 26 25 26 25 25 25 25 26 26 26 26 25 25 24 24 23 22 22 22 22 22 22 22 22 21 21 21 21
29 29 29 29 28 28 28 27 27 26 25 26 27 26 26 26 26 26 26 26 25 26 26 26 26 26 25 24 24 24 24 24 24 24 24 24 25 25 25 25 24 24 24 24 23 23 24 24 24 23 23 24 24 25 25 25 26 25 25 26 25 25 25 25 26 26 26 26 26 25 25 24 23 23 22 22 22 22 22 22 22 22 21 21 21
30 29 28 29 28 28 28 28 27 26 25 26 27 26 26 26 26 26 26 26 25 26 26 26 26 25 25 24 24 23 23 24 23 23 23 24 24 25 24 24 24 24 24 24 23 23 24 24 24 24 24 24 24 25 25 25 25 24 25 25 25 25 25 25 26 26 26 26 26 25 25 25 25 24 23 23 23 23 22 22 22 22 21 21 21
30 29 28 28 28 29 28 28 27 26 26 26 26 26 26 26 26 26 26 26 26 26 26 26 26 25 25 25 24 23 23 23 23 23 23 23 24 24 24 24 24 23 23 23 23 23 23 23 23 23 24 24 25 25 25 25 25 24 24 24 25 25 25 25 26 26 26 26 25 25 25 25 25 24 24 23 23 23 23 23 22 22 21 21 21
30 29 29 28 28 28 28 28 27 26 26 26 26 26 26 26 26 26 26 26 26 26 26 26 26 26 26 25 24 23 23 23 23 23 23 23 24 24 24 24 23 23 23 23 23 23 23 23 23 23 23 24 24 25 25 25 25 24 24 25 25 25 25 25 26 26 26 25 25 25 24 24 23 23 23 24 23 23 23 23 22 22 22 21 21
30 29 29 28 28 28 28 28 28 27 26 26 26 26 26 26 26 26 26 25 25 26 26 26 26 26 26 26 25 23 23 23 23 23 23 23 24 24 24 23 23 23 23 23 23 23 22 22 23 23 23 24 24 25 25 25 25 25 25 25 25 25 25 25 25 26 25 24 25 25 25 24 23 23 23 23 23 23 22 22 22 22 22 21 21
30 29 29 28 28 28 27 28 28 27 26 26 26 25 26 25 25 26 25 25 25 26 26 26 26 26 26 26 25 23 23 23 23 23 22 23 23 23 23 23 23 22 22 22 23 23 22 22 23 23 23 23 24 25 25 25 24 24 25 25 25 24 24 25 25 25 25 25 25 25 25 25 24 24 23 23 23 23 22 22 22 22 22 21 21
30 29 29 28 28 28 27 27 27 27 27 26 25 25 26 25 25 26 26 25 25 26 26 26 26 25 25 25 24 23 23 23 23 22 22 22 23 23 22 23 22 22 22 22 22 22 22 23 23 23 23 23 23 24 24 24 24 24 25 25 24 23 24 24 24 24 25 26 25 25 26 25 25 24 24 23 23 23 22 22 21 21 21 21 21
30 29 28 28 27 27 27 27 26 27 27 26 26 26 26 26 26 26 26 25 25 26 26 26 26 25 25 25 24 23 23 22 22 22 22 22 23 23 23 22 22 22 22 21 21 22 23 23 23 23 23 23 23 23 24 24 24 24 24 24 24 23 23 23 24 24 25 26 26 26 26 25 25 24 24 24 23 23 23 22 22 21 21 21 20
30 29 28 28 27 27 27 27 26 27 27 27 26 26 26 26 26 26 26 26 25 25 26 26 26 26 25 25 24 23 23 23 22 22 22 22 22 22 22 22 22 22 22 21 22 23 23 22 23 23 23 23 23 24 24 24 24 24 24 25 25 24 24 23 24 25 26 26 26 25 25 25 25 25 24 24 23 23 23 23 22 22 21 21 21
30 29 29 28 27 27 27 27 27 26 27 27 26 26 26 27 26 26 26 26 26 26 26 26 26 26 25 24 24 24 23 23 22 22 22 22 22 22 22 22 22 22 21 22 22 22 22 23 23 23 23 23 24 24 24 24 23 24 25 25 25 25 24 24 25 26 26 26 26 26 25 25 24 24 24 24 24 23 23 22 22 22 21 21 21
30 29 29 28 27 27 27 27 27 27 27 26 26 26 26 26 26 26 27 27 27 26 26 26 26 26 25 24 24 24 23 23 23 23 22 22 22 22 23 22 22 22 22 23 23 22 23 23 23 23 24 24 24 24 24 23 23 24 25 24 25 25 24 24 25 26 26 27 27 26 25 25 24 23 24 24 24 24 23 22 21 21 21 21 22
30 29 29 28 28 27 27 27 27 27 27 26 26 26 26 26 26 26 26 27 27 27 26 26 25 25 25 25 24 24 23 23 23 23 23 23 23 23 23 23 22 23 23 23 23 23 23 23 23 23 23 24 24 24 24 23 23 24 24 23 25 26 24 24 26 26 26 27 27 26 25 24 24 23 23 24 23 23 23 22 21 21 21 21 21
30 30 29 29 28 28 27 27 27 27 27 26 26 26 26 26 26 26 26 26 26 26 26 26 26 25 25 25 24 24 24 23 24 24 23 23 23 23 23 23 23 22 23 23 23 23 23 23 23 23 23 23 24 25 25 24 24 23 23 23 24 25 24 24 26 25 25 26 26 26 25 24 24 23 23 23 22 23 23 22 21 21 21 21 21
31 30 30 29 29 28 27 27 27 27 27 27 26 26 26 26 26 26 26 26 26 26 26 26 26 26 26 26 25 24 24 24 24 24 24 24 24 23 23 23 23 23 23 23 23 23 23 23 23 23 23 23 23 24 24 24 24 23 23 23 23 24 24 24 25 24 25 26 26 26 26 25 24 23 23 23 23 23 23 23 22 22 21 21 21
31 30 30 30 29 28 28 27 27 27 27 27 26 26 26 26 26 26 26 26 26 26 26 26 26 26 26 26 26 25 24 24 24 24 24 24 24 23 23 23 23 23 23 23 23 24 24 24 23 23 23 23 22 23 24 24 24 23 23 23 23 24 23 24 24 24 24 25 25 26 26 25 25 24 24 24 24 23 22 22 22 22 22 21 21
31 30 30 30 29 29 28 28 27 27 27 27 27 26 26 26 26 26 26 26 27 27 27 26 26 27 27 27 26 26 24 24 25 24 24 24 24 23 23 23 24 24 23 23 23 24 24 23 23 23 22 22 22 23 23 24 24 24 24 23 24 23 23 24 24 24 24 24 25 25 26 26 25 25 24 24 24 23 22 22 22 22 22 21 21
31 31 30 30 29 29 28 28 27 27 27 27 27 26 26 26 26 26 26 26 26 27 27 27 27 27 27 26 26 26 25 24 24 24 24 24 24 23 23 23 24 24 24 24 24 24 24 23 23 22 22 22 22 22 22 23 24 24 24 23 23 24 24 24 24 24 24 24 25 25 26 26 25 25 25 24 24 24 23 22 22 22 22 22 21
31 31 30 30 30 29 28 28 28 27 27 27 27 26 26 26 26 26 26 26 26 27 27 27 27 26 26 26 25 25 25 24 24 24 24 24 24 23 23 23 23 24 24 24 24 24 23 23 23 22 22 22 22 22 22 23 23 23 23 23 23 24 24 24 24 25 25 24 24 25 26 26 25 25 25 25 24 23 23 23 22 22 22 22 22
31 31 31 30 30 29 28 28 28 27 27 27 27 26 26 26 26 26 26 26 26 26 27 27 27 26 26 26 25 25 25 25 25 25 24 24 24 23 24 24 23 24 24 24 24 24 24 23 23 23 23 22 22 22 22 23 23 23 23 23 23 24 24 24 24 25 24 24 24 25 26 26 25 25 25 24 23 23 23 22 22 22 22 22 22
Height
802 803 804 805 807 808 810 811 812 813 814 815 816 818 818 820 821 822 824 825 826 828 828 829 831 831 832 832 833 833 834 834 835 835 836 837 837 838 838 839 839 840 839 839 839 838 838 837 837 837 837 837 837 836 836 836 836 836 836 836 835 835 835 835 835 834 834 833 833 833 833 833 833 833 834 835 835 836 837 838 838 839 839 840 840
802 804 805 806 808 809 811 811 813 814 816 817 817 818 819 821 822 824 825 826 828 828 830 831 832 832 833 833 834 834 835 835 836 836 837 838 838 839 839 840 840 840 839 839 839 839 839 838 838 838 838 838 837 837 837 836 836 836 836 836 835 835 835 835 835 835 835 834 834 834 834 834 834 834 834 836 836 837 838 838 838 839 840 841 841
801 804 806 808 809 810 812 812 814 814 816 817 818 819 820 822 823 825 826 828 828 829 831 831 833 833 834 835 835 835 836 836 837 837 838 839 839 840 840 841 840 840 840 840 840 839 839 839 839 839 839 839 838 838 837 837 836 837 836 836 836 835 835 835 835 834 835 835 835 834 834 834 834 835 835 836 837 837 838 839 839 839 840 841 841
801 804 806 808 810 811 812 813 815 815 817 817 819 820 822 823 824 826 827 829 829 830 832 832 834 834 835 836 836 836 837 837 838 838 839 840 840 841 841 841 841 840 840 840 840 840 840 840 840 840 840 840 839 839 838 838 837 837 837 836 836 836 835 835 835 834 835 835 835 835 835 835 835 835 836 836 837 838 839 839 840 840 840 841 842
802 804 806 808 810 812 813 814 815 816 817 819 820 821 823 824 826 827 828 829 830 832 832 834 835 835 836 836 837 837 838 838 839 839 840 841 841 842 842 842 841 840 840 840 841 840 840 840 840 840 840 840 840 839 839 838 838 838 837 837 837 836 836 835 835 835 835 835 835 835 836 836 836 836 836 837 837 838 839 840 840 841 842 842 842
802 805 807 809 811 812 814 815 816 817 818 820 821 822 824 825 826 827 829 830 831 833 834 835 835 836 837 837 838 838 839 839 840 840 841 842 842 843 842 842 841 841 841 841 841 841 841 840 840 840 840 840 840 840 839 839 839 838 838 837 837 836 836 835 835 835 835 834 835 835 836 836 836 836 837 837 838 839 840 841 841 842 842 843 843
802 806 808 809 812 813 815 816 818 819 820 821 823 824 825 826 827 828 829 830 832 833 834 835 836 837 837 838 838 838 839 840 840 841 842 843 843 843 842 842 841 841 841 841 841 841 841 840 840 840 840 840 840 840 840 839 839 839 839 838 837 837 836 835 835 835 835 834 835 835 836 836 837 837 837 838 839 839 840 841 841 842 843 843 844
804 807 808 810 812 814 816 817 819 820 821 823 824 825 826 827 828 829 830 831 833 834 835 836 837 837 838 838 838 839 840 840 841 842 843 843 843 843 842 841 841 842 842 842 841 841 841 840 840 840 840 840 840 840 840 839 839 839 839 838 838 837 836 836 835 835 835 834 835 836 836 836 837 838 838 838 839 840 841 842 842 843 843 844 845
806 807 809 812 812 814 817 818 820 821 822 824 824 826 827 828 829 830 831 832 833 835 836 837 838 838 838 839 839 840 840 842 842 843 844 843 844 843 842 842 841 842 842 842 841 841 840 840 840 840 840 840 840 840 840 839 839 839 839 839 838 837 837 836 835 835 835 835 835 836 836 836 838 838 838 839 840 841 842 843 843 844 844 845 846
807 808 810 812 814 816 817 819 821 822 823 824 825 826 827 828 829 830 831 833 834 835 836 837 838 839 839 839 840 841 842 842 843 843 844 844 844 843 842 842 842 842 842 842 841 841 840 840 840 840 840 839 840 840 840 839 839 839 839 839 838 838 837 836 836 835 835 836 836 837 837 837 838 839 839 839 840 841 842 843 844 845 845 845 846
807 809 811 813 815 816 818 820 821 823 824 825 826 827 828 829 830 831 832 833 835 836 837 838 838 839 839 840 840 841 842 843 844 844 844 844 843 843 842 842 842 842 842 842 841 841 840 840 840 840 840 839 839 839 839 839 839 839 838 838 838 837 837 836 836 835 836 837 837 837 838 838 839 839 839 840 840 842 843 844 845 845 846 846 847
808 810 811 814 815 817 819 820 821 823 824 826 827 828 829 829 831 831 833 834 835 836 837 838 839 840 840 841 841 842 843 844 844 844 844 844 843 843 842 842 842 843 843 842 841 841 841 840 840 840 839 839 839 839 839 839 838 838 838 838 837 837 837 836 836 836 836 837 838 838 839 839 839 839 839 840 840 842 843 844 845 845 846 847 848
808 810 812 814 815 818 819 820 822 823 825 826 827 828 829 830 831 832 833 835 836 837 838 839 840 840 841 841 842 842 844 844 844 844 844 843 843 843 842 843 842 843 843 842 842 841 841 840 840 839 839 839 838 838 838 838 838 838 837 837 837 837 836 837 837 837 838 839 840 839 839 840 840 839 839 840 840 842 843 844 845 846 847 848 849
807 809 812 814 815 818 818 821 822 824 825 826 828 828 830 831 832 833 834 835 836 838 838 840 840 841 841 842 842 843 844 844 845 844 844 843 843 843 843 843 842 843 843 843 842 842 841 840 840 839 839 838 838 838 838 838 837 837 837 837 836 836 836 837 838 838 839 840 840 840 839 840 840 840 840 840 841 842 843 844 845 846 847 848 849
807 809 812 814 815 818 819 821 822 824 826 826 828 829 830 832 833 834 835 836 837 838 839 840 841 841 842 842 843 843 844 844 844 844 844 844 843 843 843 843 843 842 843 843 843 842 842 840 840 839 839 838 838 838 837 837 837 837 836 836 836 836 837 837 839 839 839 839 839 839 839 840 840 840 840 840 841 842 843 844 845 846 847 848 849
808 810 812 814 816 818 819 821 823 824 826 827 829 829 831 832 833 835 836 837 838 839 839 840 841 842 842 843 843 843 844 844 844 844 844 844 844 844 844 844 843 842 843 843 843 842 842 841 840 839 839 839 838 838 837 837 837 837 836 836 836 836 837 838 839 839 838 837 839 839 840 841 840 840 840 841 841 842 843 844 845 846 847 848 849
808 811 812 815 816 818 820 822 823 825 826 828 829 830 831 832 834 835 836 837 838 839 839 840 841 842 842 843 843 843 844 844 844 844 844 844 844 844 844 844 843 843 842 843 843 842 842 841 840 840 839 839 838 838 837 837 837 837 837 836 836 836 837 838 839 839 838 838 839 839 839 840 840 840 840 841 842 842 843 844 845 846 847 848 849
809 811 813 815 817 818 821 822 823 825 826 828 829 830 831 833 834 835 836 837 838 839 839 840 841 842 843 843 843 843 844 844 844 844 844 845 845 845 844 844 844 843 842 842 842 842 842 841 841 840 839 839 839 838 838 837 837 837 837 836 836 836 837 837 838 839 840 839 839 838 839 839 840 840 841 841 842 843 844 844 845 846 847 848 849
810 812 813 815 817 819 820 822 823 825 826 828 829 830 831 832 834 835 836 837 838 839 839 840 841 842 842 843 843 843 844 844 844 845 844 845 845 845 844 844 844 844 843 842 842 842 842 841 841 840 840 840 839 839 838 838 837 837 836 836 836 835 836 836 837 839 839 838 838 837 838 839 839 840 841 841 842 843 844 845 845 846 847 848 849
810 812 814 815 817 819 820 822 823 824 826 828 829 830 831 832 834 835 836 837 838 839 839 840 841 842 842 843 843 844 844 844 844 845 844 845 845 845 844 844 844 844 843 842 842 841 841 841 841 840 840 840 839 839 838 838 838 837 836 836 835 835 835 835 836 838 838 837 837 837 837 838 839 840 840 841 842 843 844 845 846 846 847 848 849
811 812 814 815 817 819 820 821 823 825 826 827 829 830 831 832 834 835 836 837 837 839 839 840 841 841 842 843 843 844 844 845 845 845 845 845 845 845 845 844 844 844 843 842 842 841 841 841 840 840 840 839 839 838 838 838 838 837 837 836 835 835 834 835 836 837 838 837 837 837 837 838 839 839 840 841 842 843 844 845 846 847 847 848 849
810 812 814 815 816 818 819 821 823 824 826 827 829 830 831 832 834 834 835 836 837 838 839 840 841 841 842 842 844 844 844 844 844 845 845 845 845 845 844 844 844 843 843 842 842 841 841 841 840 840 839 839 839 838 838 837 838 838 837 836 835 834 834 835 835 836 836 836 837 837 837 838 838 839 840 841 841 843 844 845 846 847 848 848 849
809 811 813 815 816 818 819 821 822 824 826 827 828 829 831 831 833 834 835 836 837 838 838 839 840 841 841 842 843 843 844 844 845 845 845 845 844 844 844 844 843 843 843 843 842 842 842 841 841 840 840 840 839 838 838 838 837 837 837 836 835 835 835 835 835 835 835 836 837 837 837 837 838 839 839 840 841 842 843 844 845 846 847 848 849
809 810 812 815 816 817 819 821 822 824 825 827 828 829 830 831 832 833 834 835 836 837 838 839 839 840 841 841 842 842 843 844 844 844 844 844 844 844 844 843 843 843 843 842 843 842 842 841 841 840 840 839 839 839 839 839 838 838 837 837 836 836 835 834 835 835 835 835 836 837 837 837 837 838 839 840 841 842 843 844 845 846 846 847 848
808 810 812 814 816 817 819 821 822 823 825 826 827 828 829 831 832 833 834 834 835 836 837 838 838 839 840 840 841 841 842 842 843 843 843 843 843 843 843 842 842 842 842 842 842 842 841 841 841 841 840 839 839 839 839 839 839 838 838 837 836 836 835 834 834 835 835 835 836 836 837 837 837 838 838 839 840 841 842 843 844 845 846 847 848
807 809 811 813 815 817 818 820 822 823 824 825 826 828 829 830 831 832 833 834 835 835 836 837 837 838 839 839 840 840 841 842 842 842 843 843 843 843 842 842 842 842 842 843 843 842 842 841 841 841 840 840 840 840 839 839 839 838 837 837 836 835 835 834 834 835 834 834 834 836 836 836 837 837 838 838 839 840 841 842 843 844 845 846 847
807 808 810 813 815 816 818 819 821 822 824 825 826 827 828 829 830 831 832 833 834 835 836 836 837 838 838 839 839 839 840 841 841 841 842 842 842 842 841 841 841 842 843 843 843 842 842 842 841 841 841 840 840 840 839 839 839 838 837 836 836 835 835 834 834 834 834 833 833 835 835 836 836 837 837 838 838 839 840 841 842 843 844 845 846
806 808 810 812 814 815 817 819 820 822 823 824 825 826 827 828 829 831 832 832 833 834 835 835 836 837 838 839 839 839 839 839 840 840 841 841 841 841 841 841 841 842 842 842 842 842 842 842 842 841 841 841 840 840 840 840 839 837 837 836 835 835 834 834 834 834 834 834 833 833 834 835 836 836 837 837 838 839 840 841 842 843 844 844 845
805 807 809 810 813 814 816 818 819 821 823 824 825 826 827 828 829 830 831 832 833 833 834 835 836 836 837 838 838 839 839 839 839 839 840 840 841 841 841 840 840 841 841 841 841 842 842 842 842 842 841 841 840 841 840 839 838 837 836 836 836 835 834 834 834 834 834 834 834 833 834 834 835 836 836 837 837 838 839 840 841 842 843 843 844
804 806 808 809 811 813 815 817 818 820 822 823 824 825 826 827 828 829 830 831 832 833 833 834 834 835 836 836 837 838 838 838 838 839 840 840 840 841 840 840 840 840 841 841 841 842 842 842 842 841 841 841 840 841 840 839 838 837 837 837 836 835 834 834 834 834 833 834 834 833 833 834 835 835 836 836 837 838 839 839 840 841 841 842 842
802 805 806 808 810 812 814 816 818 819 820 822 823 824 825 826 827 828 829 830 831 832 832 833 833 834 835 835 836 837 838 838 838 839 839 840 840 840 840 840 840 840 840 840 840 840 841 841 841 841 841 840 840 840 840 839 837 837 837 836 836 835 835 834 833 833 832 832 833 834 833 833 834 835 835 836 836 837 838 838 839 839 840 841 841
801 803 805 807 809 811 813 815 816 818 819 821 822 823 824 825 826 827 828 829 830 831 831 832 832 833 834 834 835 836 837 837 838 838 839 839 839 839 839 839 839 839 839 839 839 839 840 840 840 840 840 840 840 840 840 839 837 837 837 836 836 836 835 835 834 832 831 832 833 834 833 833 833 834 835 835 836 836 837 837 838 838 839 839 840
799 802 804 805 807 809 811 813 815 816 818 819 820 822 823 824 825 826 827 828 829 830 830 831 832 833 833 834 834 835 836 837 837 838 838 838 838 838 838 838 838 838 838 838 838 839 839 839 839 839 840 840 840 839 839 838 837 838 837 836 836 836 836 835 834 833 832 832 832 833 833 833 833 833 833 834 835 835 836 836 836 837 837 838 839
797 800 802 803 805 807 809 811 813 815 816 818 819 821 822 823 824 825 826 827 828 829 829 830 831 832 832 833 833 834 835 836 836 837 837 837 837 837 837 837 838 838 838 838 838 838 838 838 837 838 839 839 839 839 839 838 838 838 838 837 836 836 836 834 833 833 833 832 832 833 833 833 833 833 832 833 833 834 834 835 835 836 836 837 838
795 797 800 802 804 805 807 809 811 814 815 817 818 820 821 822 823 824 825 826 826 827 828 829 830 830 831 832 832 833 834 835 835 836 836 837 837 836 837 836 837 838 838 838 838 837 838 837 837 838 839 839 839 839 838 838 838 838 838 838 837 836 836 835 834 834 833 832 833 833 833 833 833 833 832 832 832 832 833 834 834 835 835 836 837
793 796 798 800 803 804 806 807 809 812 814 816 817 818 820 821 822 823 824 825 825 826 827 828 828 829 830 830 831 832 833 833 834 835 835 836 836 836 836 836 836 837 836 837 837 836 837 837 837 838 839 839 838 838 838 837 838 838 838 837 836 836 836 835 834 833 832 833 834 833 834 834 834 834 833 833 832 832 832 833 834 834 834 835 836
791 794 796 799 801 802 805 806 808 810 812 814 815 817 819 820 821 822 823 824 824 825 825 826 827 827 828 829 830 830 831 832 832 833 834 835 835 835 835 835 835 835 835 835 836 835 836 837 837 837 838 838 838 837 837 837 837 837 837 836 836 836 836 835 834 833 834 834 834 833 834 834 834 834 834 833 833 832 833 833 833 834 834 835 836
790 792 794 797 799 801 803 804 806 808 810 812 814 816 817 818 820 821 822 822 823 824 824 825 826 826 827 828 829 829 830 830 831 832 832 833 833 834 834 833 834 835 834 834 835 835 835 836 836 837 838 838 838 837 837 837 838 837 837 836 836 837 836 835 835 835 834 834 833 833 833 833 834 834 834 834 834 833 833 833 833 833 833 834 835
787 790 792 795 797 799 801 803 805 806 808 810 812 814 815 817 818 819 820 821 822 822 823 824 824 825 826 827 828 828 829 829 829 830 830 831 831 832 833 833 833 834 834 834 834 834 834 835 836 837 837 838 838 838 838 838 837 837 836 835 836 837 836 836 836 836 834 833 834 833 832 833 834 834 834 834 834 833 833 833 832 833 833 834 835
785 788 790 793 795 797 799 801 803 804 807 808 810 812 813 815 816 817 818 819 820 820 822 822 823 824 825 826 826 826 828 828 828 829 829 829 830 831 831 832 833 832 833 835 834 833 834 835 836 837 837 837 838 837 837 837 837 836 835 835 835 836 836 836 836 835 834 832 833 833 832 832 833 834 834 834 834 834 834 834 833 833 833 834 834
783 785 788 790 793 795 796 798 800 803 804 806 808 809 811 812 813 815 815 816 818 819 820 821 821 823 824 824 825 825 826 826 827 827 827 828 829 830 830 831 832 831 832 834 834 833 834 836 836 836 837 837 837 836 836 837 836 836 835 834 834 834 835 835 835 833 833 832 832 833 833 833 834 835 835 835 835 835 835 835 834 834 834 834 834
779 782 785 788 790 792 794 796 798 800 802 803 805 807 808 809 811 812 813 815 816 817 818 819 820 821 822 823 824 825 825 825 826 826 827 828 828 829 830 830 830 831 832 833 833 834 834 835 836 836 836 836 836 836 836 836 836 835 833 832 832 833 834 833 833 832 831 831 831 832 833 834 836 836 835 835 835 835 836 835 835 835 835 835 834
776 779 782 785 787 789 791 794 796 797 799 801 803 805 806 807 809 810 812 813 814 815 817 818 819 820 821 822 823 823 824 824 825 825 826 827 827 829 829 829 830 831 832 832 833 834 835 835 836 836 836 836 836 836 836 836 836 834 832 834 833 832 834 833 832 831 830 830 831 831 834 835 836 837 836 836 836 836 836 836 836 836 835 835 835
773 776 779 781 783 786 788 790 793 795 797 799 801 803 805 806 808 809 811 812 813 814 815 817 818 819 820 821 821 822 822 823 823 824 826 826 827 828 828 829 829 830 831 832 833 834 834 835 835 836 836 835 834 834 836 836 836 834 834 836 832 830 835 834 830 830 830 830 830 831 835 836 836 837 837 836 837 837 837 837 836 836 836 836 836
769 771 774 777 779 782 785 788 790 793 795 797 799 801 803 805 806 808 809 810 811 813 814 815 816 817 818 819 820 821 821 822 823 824 825 826 826 827 828 828 829 830 831 832 833 833 834 835 835 836 836 835 834 833 834 835 836 836 836 836 834 834 836 833 830 831 831 830 830 831 834 835 835 837 837 837 837 837 837 837 837 837 836 836 836
764 768 770 773 776 779 782 785 787 790 792 794 796 799 801 802 804 805 807 808 809 811 812 813 814 815 816 817 819 819 820 821 822 823 824 825 826 826 827 828 829 830 831 832 832 833 834 834 834 835 835 835 835 834 834 834 835 836 836 836 836 837 836 833 832 833 832 830 830 830 832 833 835 836 836 836 837 837 837 837 837 837 837 837 836
761 764 767 770 773 776 779 782 784 787 789 791 794 796 798 800 801 802 804 806 807 808 810 811 812 814 815 816 817 818 819 820 821 822 823 824 825 826 827 828 829 830 831 832 832 833 833 833 834 835 835 835 836 835 834 833 834 835 835 835 835 835 835 835 834 834 835 833 831 831 831 831 834 834 834 835 835 836 837 837 837 837 836 837 836
758 761 764 766 769 773 776 778 781 784 786 789 791 793 795 797 799 801 802 804 805 807 808 809 811 812 813 814 815 817 818 819 821 821 822 824 824 826 827 828 829 830 830 831 832 832 832 833 834 835 835 836 836 835 835 833 833 833 834 835 835 835 835 835 835 835 836 835 832 831 830 829 832 833 834 835 835 835 836 836 837 836 836 836 836
754 757 760 763 766 770 773 775 778 781 783 786 788 790 793 795 797 799 801 802 804 805 806 807 809 811 812 813 814 816 817 818 820 821 822 823 824 825 827 827 828 829 830 830 831 831 832 833 834 835 835 835 835 836 835 835 834 833 833 835 835 834 834 834 835 835 835 835 833 830 829 829 830 831 832 834 834 835 836 836 836 836 836 836 836
750 754 757 760 763 766 770 772 775 778 780 783 785 788 790 793 795 797 799 801 802 803 804 806 807 809 811 812 813 815 816 817 819 820 821 822 824 825 825 827 827 828 829 829 830 830 832 833 834 834 835 835 836 836 836 835 835 833 834 835 834 834 834 834 834 833 833 835 835 831 828 829 830 830 831 832 833 835 836 836 836 836 836 836 835
747 750 753 756 760 763 766 769 772 775 777 780 782 785 787 790 792 794 796 798 800 801 803 804 806 808 809 810 812 814 815 817 818 819 820 821 823 824 825 826 827 827 828 829 830 830 831 832 833 834 834 835 835 836 836 835 835 835 834 834 834 833 833 833 833 833 833 834 834 832 829 829 830 830 831 832 833 834 835 835 835 835 835 835 835
Wind_Speed
14 14 15 15 17 19 17 16 18 19 20 21 21 22 22 21 22 21 20 19 19 18 18 17 17 17 17 16 16 16 16 17 18 18 18 18 18 18 17 16 15 16 16 16 16 16 16 16 16 15 14 14 13 13 13 13 13 12 10 11 11 10 9 9 9 10 9 10 10 11 11 12 13 13 12 11 11 10 9 7 9 12 12 12 12
16 15 17 16 16 18 17 15 16 17 19 21 21 21 21 20 21 20 19 19 18 17 17 16 16 16 16 15 14 15 15 17 17 17 17 17 17 17 16 15 15 15 15 15 15 14 15 15 15 14 13 13 13 13 13 13 14 14 11 10 9 9 8 8 8 8 9 9 9 11 11 12 12 13 12 11 11 10 8 6 8 11 12 13 13
18 17 18 18 17 17 17 15 16 17 19 20 20 20 20 20 20 19 19 18 17 17 16 16 15 15 14 13 14 14 15 16 16 16 16 16 16 15 15 14 14 14 14 14 14 13 13 14 14 13 12 13 13 12 13 13 13 13 13 11 9 9 8 7 7 7 8 8 8 11 12 12 12 13 12 11 11 10 9 7 9 12 13 14 13
19 18 18 20 18 18 18 16 16 17 18 19 19 19 19 19 18 18 18 17 16 16 15 15 14 14 13 13 14 14 15 15 15 15 15 15 15 14 13 13 13 13 14 13 13 12 12 12 13 13 12 12 12 12 13 13 13 12 13 12 10 10 8 6 6 6 9 8 5 7 11 12 12 13 12 12 11 10 9 9 10 12 14 14 13
20 18 18 19 17 17 18 17 17 16 17 18 19 18 18 17 17 17 16 15 15 15 14 15 14 13 13 13 14 14 14 14 14 14 14 14 14 13 12 13 13 13 12 12 12 12 11 11 12 12 12 12 12 12 12 12 13 12 12 13 11 11 10 7 5 6 9 9 5 5 10 12 12 12 12 12 11 11 9 9 11 11 13 13 13
19 18 18 18 17 17 17 18 17 16 16 17 18 18 17 17 16 15 15 14 14 14 14 14 14 13 13 13 13 14 14 14 14 13 13 13 13 12 12 12 12 12 11 11 11 11 11 10 10 11 11 12 12 12 11 12 12 11 11 12 12 11 12 9 7 6 7 8 6 5 8 11 12 11 11 11 11 11 10 10 11 11 12 13 12
19 18 17 17 17 17 17 18 17 16 16 16 16 16 16 16 15 15 14 13 13 14 14 14 13 12 12 12 12 13 13 13 12 12 12 12 12 12 12 12 11 11 10 11 11 11 10 9 9 9 10 10 11 11 11 11 10 10 10 10 10 11 11 10 9 8 6 6 5 5 6 9 11 10 11 11 11 10 10 10 11 11 12 12 12
19 17 16 17 18 18 18 17 16 17 17 16 16 15 15 15 14 14 13 13 13 14 14 13 13 12 11 11 12 12 12 12 11 11 11 11 11 11 11 11 10 9 10 10 10 10 9 8 8 8 9 9 10 10 10 10 10 9 8 9 8 9 10 9 9 8 7 6 5 5 6 8 10 10 11 11 10 10 10 10 10 10 11 12 12
19 19 18 18 19 20 18 16 16 17 17 16 16 15 15 14 14 14 13 13 14 14 13 12 12 11 10 11 11 11 11 11 11 10 11 10 10 10 10 9 9 9 9 9 8 8 8 8 8 9 9 10 9 9 9 9 9 8 8 8 7 8 8 8 8 8 7 5 4 5 6 7 10 10 10 10 11 11 9 9 9 10 10 12 12
20 20 19 19 22 21 19 17 16 16 16 16 16 15 14 14 14 13 13 14 14 14 13 12 11 10 9 10 10 10 10 10 10 10 10 9 9 9 9 9 8 8 9 8 7 7 7 7 8 9 9 10 9 9 9 8 8 8 8 7 6 6 6 6 6 7 6 4 3 4 6 8 9 10 10 10 11 11 9 8 9 9 10 12 12
22 20 18 19 22 22 20 18 16 16 16 16 16 15 14 14 14 14 14 14 14 13 12 11 10 9 9 9 9 9 9 9 9 9 9 8 8 8 8 8 7 8 8 7 6 6 6 7 8 8 9 9 9 10 9 8 8 8 7 7 5 5 5 5 4 6 5 2 2 3 6 8 9 10 9 10 10 11 10 8 9 10 11 11 11
21 19 19 20 22 22 20 17 16 16 16 16 16 15 15 15 14 14 14 14 14 13 12 10 10 9 8 8 8 8 8 9 9 8 8 7 7 8 8 7 6 6 6 6 6 6 7 9 9 9 9 9 9 9 8 7 7 7 7 6 6 5 4 3 2 5 5 2 2 3 6 8 9 9 9 9 9 10 10 9 9 10 11 11 11
21 19 20 20 21 21 19 17 16 16 15 15 15 16 15 15 14 14 14 13 13 12 11 10 10 9 8 8 7 7 7 7 8 7 6 6 7 7 7 6 5 5 5 6 7 8 9 9 10 11 10 10 10 8 7 7 6 7 6 4 5 5 3 2 2 5 6 3 3 3 6 8 8 8 10 9 8 9 10 10 10 10 10 10 11
21 20 20 19 20 20 19 17 16 15 15 15 15 16 15 14 14 13 12 12 12 11 10 10 9 8 7 7 6 6 6 6 7 6 5 5 6 6 5 4 4 4 5 7 8 9 9 10 11 11 11 11 10 7 7 7 7 7 6 4 3 3 3 3 3 5 6 5 4 3 6 8 6 6 9 9 9 9 9 10 10 10 10 10 10
20 21 20 19 20 19 18 17 16 15 14 15 15 15 14 13 13 13 11 11 11 10 10 9 9 8 7 6 6 5 5 5 5 5 5 5 5 4 4 3 4 5 6 8 9 9 10 11 11 11 11 10 9 8 8 8 8 7 5 4 3 3 3 3 3 5 6 4 1 3 7 6 4 6 8 8 9 9 8 9 10 11 10 10 10
19 19 19 18 19 19 18 17 16 15 14 15 15 15 14 13 13 12 11 11 10 10 9 8 8 7 6 6 5 5 4 4 4 4 4 4 4 3 3 3 4 6 8 9 10 10 11 11 11 11 10 9 9 9 8 8 8 8 6 5 5 5 4 3 3 5 5 2 1 3 6 5 2 6 7 7 8 8 8 9 10 11 11 10 9
18 18 18 18 18 18 17 16 16 16 15 15 15 15 14 13 12 11 11 10 10 9 8 8 7 6 6 6 5 5 4 3 3 3 2 3 2 2 2 3 4 7 9 10 10 11 11 11 10 10 10 9 10 9 9 8 8 9 8 6 6 6 4 4 3 4 4 1 1 3 5 5 3 5 6 6 7 7 7 8 10 10 11 11 10
17 17 17 18 18 18 17 17 17 16 15 15 15 15 14 13 12 11 10 10 9 9 8 7 7 7 6 6 5 4 4 3 2 2 2 1 2 2 1 2 4 7 9 11 10 10 10 10 10 10 9 9 9 9 9 8 9 9 8 8 6 6 5 5 3 3 2 2 2 4 5 4 3 5 6 6 6 6 6 8 10 11 11 11 10
16 17 17 18 17 17 17 17 17 16 16 15 15 14 14 13 12 11 10 10 9 8 8 7 7 7 6 6 5 4 3 3 2 1 1 0 2 2 1 3 4 7 10 11 10 11 10 10 10 10 9 9 8 7 9 9 9 9 8 8 6 6 5 4 3 2 2 1 3 3 4 3 5 7 7 7 6 6 6 7 10 11 11 11 11
17 18 17 17 17 17 17 17 17 17 16 15 15 15 15 13 12 11 11 10 9 9 8 8 7 7 6 5 5 4 3 3 1 1 1 1 2 2 3 4 5 7 9 10 11 11 11 10 10 9 9 9 8 6 8 10 10 10 9 7 5 4 4 3 2 2 1 3 3 1 2 3 5 7 8 8 8 8 7 7 9 11 11 11 11
16 16 16 16 17 17 17 17 17 17 16 15 15 15 14 13 12 12 11 10 10 9 9 8 7 7 6 5 5 4 5 4 2 3 3 2 1 2 3 5 6 7 8 9 10 10 10 10 9 9 9 9 8 7 8 9 9 11 10 7 5 3 3 2 2 2 3 3 2 1 1 2 5 8 8 8 8 9 8 7 9 10 11 11 12
16 15 15 15 16 17 17 17 17 17 16 15 15 15 14 13 12 12 11 11 10 10 9 9 8 7 7 6 5 5 5 3 3 4 3 3 4 4 4 6 7 7 7 7 7 8 8 9 9 9 8 8 8 6 7 8 9 10 10 8 6 5 3 4 4 0 2 2 2 1 2 2 4 7 9 9 9 10 9 8 9 10 10 11 11
16 15 15 16 16 17 16 16 17 17 16 14 14 14 14 14 13 13 12 12 11 10 10 10 9 8 8 7 7 7 6 3 4 6 5 5 6 4 5 6 5 5 5 6 5 7 7 7 9 9 7 7 7 3 4 6 7 8 9 8 6 6 5 6 5 2 2 1 1 1 2 3 4 6 8 9 9 10 10 9 9 10 10 11 11
16 15 15 16 16 16 16 16 16 16 15 13 13 13 14 14 13 13 12 12 12 12 11 10 10 9 9 8 7 7 6 6 6 6 5 5 6 3 4 4 3 4 4 4 4 5 6 6 7 8 7 5 5 4 4 5 6 6 7 7 6 6 7 7 6 4 2 1 2 2 2 3 4 5 8 9 10 10 11 10 10 10 11 11 12
16 16 15 15 16 16 16 15 16 16 14 13 13 13 14 14 13 13 12 12 12 12 11 11 10 10 9 8 7 6 5 6 5 4 3 3 4 3 5 3 1 3 2 3 4 3 5 5 4 6 6 5 5 5 6 6 7 7 7 7 7 8 8 8 7 5 2 1 2 3 2 2 4 5 7 9 10 11 12 12 11 10 11 11 12
15 15 15 15 16 15 15 15 15 16 14 13 13 13 13 13 12 13 12 11 11 11 11 11 10 10 10 8 7 6 5 5 4 3 3 3 4 4 6 4 2 3 1 3 4 3 4 4 5 6 6 7 6 6 6 7 7 8 8 8 9 9 9 9 7 6 3 1 2 3 3 3 4 5 7 9 10 11 12 12 12 11 11 11 12
15 15 16 15 16 15 15 15 15 15 14 13 12 12 13 12 12 12 12 11 11 10 10 10 9 9 9 8 7 6 5 5 5 4 4 4 4 4 6 4 3 5 2 3 3 3 5 5 6 6 7 7 6 6 6 7 8 9 9 8 8 9 8 8 8 6 5 3 3 5 5 3 3 5 7 8 10 10 12 13 12 12 12 12 12
15 15 16 15 16 16 16 15 15 15 14 13 12 11 12 11 11 11 11 10 10 10 9 9 8 8 8 7 6 6 5 5 4 4 4 4 4 4 5 4 4 5 3 3 4 4 5 5 5 6 7 7 7 7 7 7 9 8 7 7 7 8 8 7 7 7 6 4 3 6 5 2 2 5 6 8 9 10 11 12 12 12 13 13 13
16 15 15 16 17 17 17 16 15 15 14 13 12 11 11 11 10 10 10 10 9 9 8 8 8 7 8 7 7 6 5 5 4 4 4 4 3 4 5 5 4 4 3 4 4 4 5 5 5 6 7 7 7 7 8 8 9 7 6 7 8 9 8 6 6 6 6 5 4 6 6 4 3 4 6 7 8 8 10 12 12 13 13 14 14
17 16 15 16 17 17 17 16 15 15 14 13 13 11 11 11 10 10 10 9 9 8 7 8 8 7 8 7 7 6 6 6 4 3 4 3 4 5 5 5 4 4 5 5 4 4 5 5 5 6 6 7 7 7 8 9 8 7 6 7 9 9 8 7 6 6 6 4 3 5 7 7 3 4 6 7 7 7 8 11 12 13 14 15 15
17 17 16 15 16 17 17 17 16 15 15 14 13 12 11 10 10 10 10 9 9 8 8 8 8 8 7 7 7 7 6 6 5 3 4 4 5 5 5 5 5 5 5 5 5 5 5 5 5 5 6 6 7 7 7 8 7 7 7 7 7 8 8 7 7 7 6 4 3 4 7 9 6 3 4 6 7 7 7 10 12 13 14 15 16
17 17 17 16 17 18 18 18 17 16 15 14 13 13 12 11 10 10 10 9 9 9 9 9 8 7 6 6 6 7 7 6 4 4 5 5 5 6 6 6 6 6 6 6 5 6 5 5 4 4 6 6 6 7 6 7 7 7 8 8 7 7 7 7 7 7 5 4 4 3 5 8 7 6 5 5 6 6 6 8 10 12 13 14 16
17 18 17 17 18 19 19 18 18 17 16 15 14 13 12 11 11 11 10 10 9 10 10 9 9 8 6 6 6 6 7 6 5 5 6 6 6 6 7 8 8 7 6 5 6 7 6 6 5 4 6 6 6 6 6 7 7 7 8 8 7 7 7 6 6 6 6 5 4 3 3 4 6 8 7 6 5 6 6 7 8 11 13 13 14
17 18 18 18 18 18 18 18 19 18 17 16 14 13 13 12 11 11 10 10 10 11 11 10 9 9 8 7 7 8 8 8 6 6 6 7 8 8 9 10 9 7 7 7 8 9 7 6 5 4 6 6 6 6 7 7 6 6 8 8 7 7 6 7 5 5 5 5 4 4 4 4 4 7 7 8 7 6 6 7 8 9 12 13 14
18 19 20 20 19 18 18 18 19 19 18 17 15 14 13 12 11 11 10 10 10 11 11 11 10 10 9 8 8 8 9 9 8 8 8 8 9 10 10 10 9 8 8 8 8 8 8 7 4 4 6 6 6 6 7 6 6 6 7 7 7 6 6 6 5 4 3 3 4 4 4 4 4 4 5 8 9 7 6 6 7 9 10 11 13
19 19 20 21 20 19 18 17 18 19 18 17 17 15 14 13 11 11 11 10 11 11 10 11 10 11 10 9 9 9 9 11 11 12 11 9 10 13 11 8 8 9 8 8 9 8 8 7 3 5 7 6 6 6 7 7 6 7 6 6 6 6 6 5 4 5 4 5 4 2 2 3 4 5 5 5 7 7 5 5 6 8 10 10 11
21 19 19 21 20 19 18 18 18 19 19 18 17 16 14 13 12 12 11 11 11 11 11 11 11 11 11 10 10 10 10 12 13 13 12 10 10 12 12 11 8 8 9 10 10 9 7 5 4 6 6 5 5 6 7 7 6 7 7 7 6 5 6 5 5 5 4 3 3 2 2 3 3 4 5 4 3 4 4 5 5 7 10 9 9
21 20 19 20 21 20 20 19 18 18 19 18 17 17 15 14 13 13 12 12 12 12 11 11 11 11 11 10 9 10 11 14 14 13 11 10 10 10 12 13 10 8 10 11 10 8 5 5 5 6 4 4 5 6 6 6 7 6 7 7 5 5 5 4 4 4 3 1 3 3 1 3 3 4 5 4 3 1 2 4 4 5 7 8 7
22 21 20 20 20 20 20 19 18 18 18 18 17 17 16 15 14 14 14 14 13 13 12 11 11 11 11 10 10 11 11 12 13 11 11 10 9 10 10 11 10 10 11 12 10 6 4 4 5 4 4 4 4 5 5 6 7 7 7 6 4 4 4 4 3 3 4 2 3 5 2 5 4 4 5 5 4 3 2 3 3 2 4 5 5
22 22 21 20 20 20 20 19 19 18 18 18 18 17 16 16 15 15 15 15 15 14 13 13 12 11 11 10 11 12 11 11 11 10 11 11 10 10 9 9 12 12 10 10 8 3 2 3 4 4 4 5 4 4 4 6 7 6 6 5 2 2 3 2 2 2 3 1 2 5 5 5 5 5 5 5 5 5 5 4 4 3 0 1 2
22 22 22 22 21 21 20 20 20 19 19 18 18 17 17 16 16 17 16 15 15 14 14 14 13 12 11 11 11 10 11 12 12 11 11 11 9 8 8 10 12 12 9 6 3 1 1 2 2 3 4 4 4 5 4 5 6 5 4 4 3 3 2 3 4 3 2 1 1 2 4 5 6 5 4 5 5 5 5 5 5 5 4 2 1
24 24 24 23 22 21 21 21 20 20 20 19 18 18 18 17 17 17 16 15 15 15 14 14 13 12 10 10 10 10 11 11 11 11 10 9 8 7 7 7 8 7 4 1 1 2 1 1 2 3 3 3 4 5 4 4 6 6 3 3 3 4 3 5 5 4 3 1 1 1 3 4 5 5 5 4 4 5 6 6 6 5 5 4 3
24 24 24 24 23 23 22 21 21 21 21 20 19 19 18 17 16 15 15 15 14 13 12 11 11 11 10 10 10 10 11 10 8 8 7 7 6 6 5 4 3 3 3 2 2 1 0 1 2 2 2 4 5 4 3 4 6 5 2 2 3 3 3 4 4 4 2 0 1 2 4 4 4 5 5 5 5 5 5 6 6 6 6 5 4
25 25 25 25 24 24 23 23 22 21 21 21 21 20 18 17 16 15 14 13 12 11 11 10 10 11 11 11 11 10 11 10 7 6 6 5 5 6 5 3 4 4 3 2 1 1 1 2 2 2 3 5 5 5 3 3 4 4 3 3 5 4 1 3 5 4 1 1 1 3 4 2 3 5 5 5 5 4 4 5 5 5 6 5 5
26 26 26 26 25 25 25 24 23 22 21 21 21 20 18 17 16 15 14 13 12 11 11 11 11 11 11 11 11 10 9 9 7 6 6 6 5 5 5 5 6 5 3 2 2 2 2 3 2 2 3 5 5 3 2 2 3 3 4 3 4 2 2 3 2 2 2 4 2 2 1 1 2 3 3 3 3 3 3 4 4 4 4 4 4
26 26 27 27 25 25 25 25 23 22 22 21 21 21 19 18 17 16 16 15 14 13 13 12 11 11 11 11 11 10 8 7 7 7 7 6 5 5 5 6 6 5 3 2 2 3 3 4 3 3 4 3 4 5 3 3 2 2 4 3 3 3 3 6 4 0 2 5 5 3 2 2 2 1 1 1 1 2 3 3 3 3 3 3 3
27 27 26 26 26 25 25 25 24 23 22 22 22 21 20 19 19 18 17 15 14 13 13 12 11 11 10 10 10 10 9 8 7 7 7 6 5 5 6 7 6 5 4 3 3 4 4 3 4 4 3 2 2 3 4 4 2 3 4 3 3 3 4 4 4 2 1 3 4 5 4 3 2 2 1 2 1 2 3 3 3 3 1 2 2
27 27 26 26 27 26 25 26 25 23 22 22 23 22 21 19 19 17 15 15 14 13 12 12 11 10 9 8 8 8 9 8 7 7 7 6 6 6 7 7 6 5 4 4 4 5 4 3 3 3 2 2 2 3 4 4 3 3 2 1 3 2 3 2 1 3 3 3 2 3 5 2 2 2 2 4 3 2 2 1 2 4 2 1 1
28 27 27 26 26 27 26 25 25 24 23 23 23 23 22 19 19 17 15 14 14 13 12 12 11 10 9 8 7 7 8 8 7 7 7 7 7 7 8 7 6 5 4 5 5 5 4 4 4 3 3 3 3 3 4 3 5 3 3 1 3 1 3 2 0 2 3 3 3 2 3 2 3 3 2 3 4 4 4 2 2 4 3 2 2
28 28 27 26 26 27 26 26 26 25 24 23 23 23 23 20 19 18 17 15 14 13 12 11 10 10 9 9 8 8 8 8 8 8 8 8 9 8 8 8 7 6 6 6 5 5 5 5 5 5 5 4 3 4 4 4 5 4 2 2 2 1 2 3 3 4 2 2 4 5 5 4 4 2 1 4 4 5 6 5 4 4 3 3 4
28 28 28 27 26 27 27 27 26 25 24 24 24 24 23 22 20 18 18 17 15 14 13 12 11 11 11 11 11 10 9 8 8 8 9 10 10 10 9 8 8 7 7 6 6 6 6 7 6 6 6 5 5 5 4 5 4 3 2 3 2 3 2 2 4 4 3 3 4 5 7 8 8 6 5 5 5 6 7 6 6 5 4 4 5
Wind_Direction
124 125 132 131 130 134 133 133 131 131 133 132 130 128 123 120 122 122 121 119 118 117 117 118 119 120 116 111 106 101 97 95 93 91 89 87 87 85 85 85 85 84 83 82 79 76 71 67 64 65 66 64 59 58 57 56 57 59 68 75 79 80 78 73 75 81 80 82 88 91 90 91 91 89 89 91 92 94 92 91 100 106 116 120 117
131 132 136 133 131 135 133 129 123 121 123 120 121 125 124 122 124 123 122 120 120 118 117 118 120 121 119 113 107 101 97 94 92 90 88 87 86 84 84 84 82 81 80 79 78 74 69 65 63 64 65 64 60 58 58 57 55 56 61 67 72 75 74 70 74 83 82 80 91 97 94 93 92 91 90 92 96 98 94 97 109 114 123 124 122
132 134 137 135 130 131 131 126 120 118 116 116 119 126 127 126 127 126 122 120 120 119 118 120 121 121 120 114 107 101 96 93 91 89 87 85 84 84 84 83 80 77 75 75 74 71 68 65 62 62 62 61 61 57 56 56 55 55 54 55 60 63 67 68 68 82 86 88 102 101 97 97 93 91 90 92 97 97 95 107 123 129 129 128 128
128 130 136 138 133 129 129 125 121 121 119 119 122 127 129 128 130 131 127 122 119 118 118 121 123 121 119 113 106 101 96 93 91 88 86 85 84 83 83 81 78 75 73 72 70 68 67 62 58 58 58 57 57 55 53 54 54 52 49 47 49 52 57 68 72 77 84 92 115 106 100 103 97 91 91 93 96 95 96 110 121 129 130 130 130
126 130 135 140 140 131 129 127 122 122 123 122 123 127 131 131 132 133 133 127 121 120 120 124 124 122 117 111 106 101 97 94 91 88 87 85 84 84 83 80 76 75 72 70 67 64 63 58 55 53 54 53 53 53 50 50 50 49 47 46 46 47 49 59 75 79 83 86 88 109 112 109 102 94 92 97 99 97 96 103 111 121 128 129 127
130 134 136 141 145 137 131 128 124 124 125 122 122 127 133 134 134 136 137 132 126 125 127 127 124 121 117 111 106 102 98 95 93 90 88 87 86 85 83 80 76 74 71 69 64 59 57 54 53 51 51 50 50 51 48 47 47 46 44 44 46 48 51 54 67 78 82 82 71 93 114 108 104 98 97 102 102 101 98 98 108 117 121 122 122
131 136 139 141 145 142 133 129 128 129 128 126 125 128 133 134 137 139 139 136 133 132 132 129 125 122 117 111 106 102 99 95 94 92 90 88 86 85 83 79 74 71 68 64 58 51 48 44 45 47 49 49 48 48 46 46 45 45 41 39 41 44 51 58 69 76 70 68 70 76 93 100 103 101 101 104 102 104 100 100 109 114 118 121 122
131 137 140 138 143 144 136 133 134 136 135 133 133 131 132 134 137 139 138 139 138 137 134 130 127 124 118 111 106 102 100 97 94 91 89 86 85 85 83 79 74 70 66 59 50 42 35 30 30 35 39 42 45 42 43 46 45 43 42 38 35 37 45 59 70 74 68 55 64 80 83 95 103 104 104 104 103 99 95 103 112 113 119 123 126
135 137 140 139 143 144 141 139 139 141 141 139 138 135 134 135 137 138 138 139 140 139 137 134 131 127 119 112 107 103 101 98 94 90 87 86 86 85 83 79 75 68 62 55 42 35 25 17 19 25 27 31 34 31 34 43 46 44 45 39 34 38 43 55 65 65 65 60 61 78 86 95 105 108 107 106 105 100 98 108 115 117 123 124 124
135 136 140 141 144 147 147 146 143 144 147 145 140 137 135 135 137 138 139 141 141 141 141 138 135 129 121 115 109 106 102 99 95 92 89 88 87 84 82 77 73 66 59 49 34 27 18 13 17 20 19 19 19 16 22 32 40 45 46 41 36 40 48 54 61 64 53 60 87 90 99 104 107 110 110 107 107 106 106 111 118 120 123 124 125
139 139 139 141 148 152 152 151 147 147 150 148 144 139 137 136 137 139 141 144 145 146 143 138 136 132 126 120 115 111 106 101 98 95 93 91 90 87 84 79 71 64 55 43 27 19 10 8 11 11 12 9 9 9 13 23 29 39 42 42 41 36 61 59 61 80 60 59 115 117 111 108 111 114 112 110 112 111 109 110 117 122 123 123 123
139 141 139 145 154 156 156 152 148 149 149 149 148 143 139 137 139 140 142 146 148 148 142 136 136 134 129 124 121 116 110 105 103 100 96 94 94 91 88 81 70 61 47 35 15 6 2 0 2 1 2 0 3 2 4 18 23 32 33 36 40 27 62 70 58 87 73 62 96 116 115 109 115 117 111 111 118 116 116 114 112 118 121 122 124
134 137 139 146 155 159 159 153 150 150 148 149 149 146 143 141 142 142 142 146 147 145 140 137 137 136 133 129 127 123 115 111 109 105 100 98 96 91 86 76 61 48 31 21 8 3 1 360 0 359 2 5 4 358 1 13 15 24 21 22 41 30 49 64 59 77 65 47 39 62 94 106 118 117 111 111 120 124 124 124 121 122 123 125 131
135 138 140 146 156 162 162 158 157 154 150 150 151 150 146 146 145 143 143 145 144 143 141 140 140 138 134 133 132 128 121 117 115 113 106 102 99 90 83 68 41 22 14 15 12 9 7 8 8 6 11 14 9 6 11 16 13 15 14 19 42 37 57 69 73 78 58 45 40 58 92 109 122 116 115 115 120 129 134 134 132 132 131 134 138
136 139 141 146 155 161 163 162 164 159 155 153 154 153 148 149 149 146 147 148 146 145 144 142 142 139 139 141 140 140 135 130 126 121 115 110 102 93 82 56 22 0 2 12 13 11 13 17 20 19 21 20 17 20 22 25 22 18 23 35 47 46 79 83 71 82 70 66 96 129 114 114 133 125 122 122 123 133 143 142 141 141 138 140 142
136 140 142 146 151 158 163 164 167 164 158 156 157 155 151 154 151 150 151 150 149 146 146 144 144 145 148 152 151 154 150 146 140 131 125 116 102 93 70 38 12 347 352 7 9 11 18 23 26 25 24 27 26 27 23 24 26 28 32 37 57 56 85 101 63 78 75 88 147 122 118 111 132 138 131 128 131 139 146 149 150 150 146 146 148
137 140 143 147 151 156 159 163 168 165 161 160 161 158 156 157 154 155 156 155 154 150 152 152 153 154 156 159 158 159 157 158 154 144 132 118 101 91 51 20 359 340 346 2 7 6 14 23 27 26 26 30 28 22 15 17 20 23 26 30 56 55 76 103 70 75 72 179 122 89 121 121 130 147 141 137 140 144 145 152 159 159 154 153 155
138 143 145 148 153 155 155 161 164 162 162 163 163 161 160 162 159 159 161 161 160 159 160 161 164 162 161 162 159 160 161 163 166 155 143 124 78 64 18 358 340 336 345 356 2 358 6 21 23 23 24 24 22 17 10 12 9 10 16 21 42 56 78 104 85 93 143 208 119 97 125 137 160 155 150 150 147 152 151 155 168 168 160 160 162
142 145 148 150 153 154 154 159 159 160 161 162 165 165 165 166 164 164 168 167 166 167 167 169 170 169 170 168 164 165 169 173 187 193 194 187 91 84 314 327 325 334 347 350 354 354 2 16 19 21 19 15 16 20 17 10 6 6 10 18 40 61 74 86 78 107 219 150 92 104 122 139 169 161 156 163 160 162 162 162 173 173 166 166 167
145 147 149 150 152 152 154 156 158 162 162 163 166 169 170 168 168 171 173 171 172 173 173 176 175 177 177 173 174 170 177 186 207 210 226 249 132 161 272 306 318 332 345 347 352 357 1 8 15 19 13 10 12 24 25 14 11 8 6 18 33 49 57 41 68 140 149 84 96 128 127 140 166 166 161 166 173 171 169 168 173 176 175 173 172
146 148 148 149 152 154 155 156 160 165 164 165 166 169 173 170 172 176 175 176 178 180 181 183 182 185 186 185 183 176 190 192 167 192 231 273 242 241 277 304 317 328 342 348 352 357 358 2 8 11 11 12 17 19 9 7 9 6 10 22 7 356 43 357 300 158 144 159 192 224 183 180 167 170 168 168 178 178 178 175 173 180 182 178 176
150 152 152 154 155 156 158 159 161 165 165 165 165 168 172 171 176 178 180 182 184 187 187 189 190 193 199 195 189 186 201 210 167 189 219 222 255 289 315 314 317 324 338 351 357 359 358 5 6 3 9 13 23 18 345 345 354 355 5 14 359 343 358 330 312 34 150 166 164 227 218 204 178 176 177 175 179 182 185 180 176 181 183 184 183
157 157 158 160 159 160 162 162 162 164 165 164 165 168 171 172 177 181 181 185 187 191 191 194 196 198 202 200 200 194 187 198 190 200 209 213 247 295 336 324 331 341 350 1 5 5 1 12 10 2 8 7 10 359 319 335 340 341 348 350 347 336 330 317 318 16 46 44 124 239 233 201 187 181 183 182 184 186 189 188 182 184 185 187 189
162 160 160 163 163 164 163 164 163 164 166 165 168 169 173 175 179 182 182 185 188 191 195 199 202 201 203 204 210 200 182 191 204 218 221 228 249 282 321 317 359 3 9 356 343 0 353 359 6 356 351 345 340 321 317 331 326 325 327 325 325 322 321 316 319 349 5 272 211 221 233 210 191 185 188 188 189 190 193 194 189 188 189 189 191
165 161 162 165 166 167 166 165 165 167 170 169 172 172 176 178 180 183 184 187 188 192 196 198 203 203 205 209 212 205 200 208 212 237 234 224 241 256 277 278 335 337 359 308 297 338 327 328 341 331 321 317 320 316 319 322 318 319 317 316 316 313 313 314 317 325 322 235 227 225 245 245 206 195 195 192 194 195 196 199 196 195 194 191 193
168 165 165 167 168 170 168 168 169 171 174 175 175 174 179 181 182 185 185 189 189 192 196 198 202 202 207 213 216 210 211 221 216 229 228 228 238 236 248 246 261 288 308 263 272 320 307 313 323 319 316 318 322 318 316 317 317 318 317 314 311 310 310 311 312 313 319 320 271 257 275 274 228 210 202 198 199 200 200 203 203 200 200 197 195
171 169 168 170 170 173 172 172 173 175 178 179 178 177 183 186 185 187 186 189 190 192 197 199 199 199 208 215 223 222 218 226 218 215 225 238 240 233 241 230 231 247 233 254 276 308 305 314 317 319 321 319 321 313 312 319 318 313 311 309 305 306 306 307 309 308 309 305 284 278 287 284 231 218 212 204 202 204 205 206 208 205 203 204 201
172 170 171 173 175 176 176 177 177 180 183 182 183 183 188 190 187 188 190 191 192 196 199 198 195 197 208 215 227 235 235 236 224 221 231 234 237 244 254 245 242 245 238 274 286 295 301 307 309 316 318 317 318 312 317 318 309 301 303 311 311 306 303 303 305 303 302 295 283 287 296 316 251 223 219 211 204 207 208 209 213 211 208 209 208
175 174 175 176 178 178 178 180 181 183 186 186 190 190 192 193 190 191 194 195 197 201 199 198 198 201 209 213 223 236 244 249 242 241 245 241 242 246 251 251 253 260 270 279 280 290 294 295 303 310 314 313 315 321 322 314 309 311 320 325 321 311 305 306 307 306 303 294 280 285 300 318 278 224 222 221 213 208 207 211 215 215 215 215 214
178 178 179 179 180 180 181 184 184 186 188 191 194 195 194 195 195 195 197 198 203 206 201 204 204 205 210 206 213 229 242 252 254 255 255 254 248 245 249 251 246 249 260 268 273 277 280 288 294 300 310 309 314 326 319 312 314 321 332 328 319 316 314 310 305 294 284 279 268 274 299 319 301 230 230 229 224 216 209 211 214 216 217 217 218
180 181 183 182 183 183 185 187 186 187 190 193 196 197 196 197 198 199 201 201 206 209 207 213 212 212 209 190 200 223 237 249 261 262 254 257 252 249 249 249 251 252 259 266 269 267 275 284 282 294 304 303 312 319 312 310 312 325 331 320 316 320 319 315 304 289 277 286 301 282 294 309 309 283 254 243 238 231 219 212 212 217 219 218 218
183 186 186 182 185 187 188 188 188 189 192 196 196 198 199 200 202 202 206 205 206 211 213 217 217 218 209 187 198 218 228 239 256 253 248 256 256 256 255 255 258 258 266 268 262 261 267 269 264 288 296 298 309 308 306 307 315 332 326 322 326 323 322 322 309 303 304 298 293 287 284 291 300 308 296 266 251 247 241 226 217 215 219 220 218
186 188 189 185 187 189 189 190 190 190 194 198 196 199 201 200 204 207 210 209 210 216 219 220 219 219 213 201 203 211 222 230 239 238 242 254 255 255 256 255 256 256 260 260 261 261 255 260 264 274 288 299 308 309 315 314 328 333 320 329 332 322 325 318 310 319 322 303 291 300 288 275 282 294 298 290 271 257 250 242 230 218 216 220 219
188 188 191 191 190 190 191 192 192 193 194 199 199 200 202 202 205 208 210 211 215 220 221 223 221 221 219 210 209 218 227 227 227 231 239 254 255 254 253 252 254 251 247 251 259 262 258 266 274 281 292 298 305 315 317 316 334 325 314 327 322 326 328 313 330 336 312 308 317 321 306 287 269 273 279 284 282 269 256 247 244 231 220 219 219
191 189 192 193 194 193 193 193 194 195 196 200 202 202 204 206 207 208 210 212 216 220 221 223 221 222 224 217 213 218 226 225 223 231 242 255 260 258 255 254 252 241 247 256 250 257 275 277 274 284 286 294 308 314 311 314 330 319 316 319 313 326 320 316 342 318 308 350 332 329 327 319 307 285 278 276 271 264 267 260 249 238 229 224 221
194 192 191 192 197 196 196 195 194 196 198 201 202 204 206 209 213 213 213 215 219 222 222 224 222 222 225 222 215 208 220 233 235 239 246 254 260 263 261 258 252 242 249 256 246 254 275 275 287 290 285 302 312 306 310 317 319 311 308 304 310 322 311 318 319 305 5 22 326 328 13 346 333 318 310 287 264 259 269 278 261 241 234 231 225
194 194 191 191 197 197 198 200 196 195 198 200 201 204 207 210 215 217 218 219 221 224 222 223 223 222 223 223 215 204 215 238 246 248 252 252 255 263 262 253 250 251 248 248 253 260 264 268 287 281 286 311 305 304 314 315 311 308 303 300 315 324 310 314 314 324 3 1 316 335 61 28 8 350 337 322 287 274 282 296 286 253 238 235 232
193 194 193 191 196 197 198 202 201 197 196 199 202 204 207 210 216 219 221 222 223 227 224 223 224 222 223 221 211 206 218 239 251 255 251 249 250 255 257 249 245 251 248 248 257 266 272 278 277 274 289 305 300 311 318 314 308 300 295 299 315 315 304 310 326 327 307 325 357 325 86 66 19 22 19 5 3 344 287 300 310 272 244 240 241
193 194 193 191 195 197 197 199 201 199 197 198 200 204 208 210 215 219 221 222 225 226 225 223 223 220 221 217 209 211 221 236 248 249 239 238 243 247 251 247 244 246 249 253 256 264 292 288 281 292 300 288 292 312 314 305 295 287 288 297 312 299 296 315 333 311 293 358 18 315 12 80 41 21 26 20 23 33 7 325 329 295 233 229 247
193 192 192 192 194 196 197 197 199 201 197 196 200 203 207 210 214 218 220 221 222 223 223 222 221 222 222 214 208 214 221 224 229 232 231 232 238 242 243 239 241 245 250 261 265 275 297 281 289 302 292 281 278 285 291 289 289 294 289 285 278 260 279 306 285 263 283 330 30 338 353 44 43 23 17 21 18 21 18 4 359 359 352 215 260
193 193 193 194 195 196 198 197 198 200 199 198 200 202 205 208 211 216 217 217 219 220 221 222 224 227 224 213 209 214 221 224 222 221 224 227 231 238 242 244 246 247 249 261 279 0 305 289 305 287 275 281 272 257 262 277 285 283 268 258 223 197 217 229 229 240 285 311 32 21 3 10 25 17 16 26 20 24 22 14 10 6 17 7 343
193 194 194 195 196 198 199 199 197 199 201 202 202 204 207 208 211 216 219 219 220 221 222 225 227 229 221 211 213 214 216 222 222 221 220 218 224 231 237 248 247 238 226 193 91 67 25 321 295 267 258 262 266 269 271 271 273 270 261 268 234 185 199 236 240 251 261 272 227 120 46 20 26 11 7 26 26 33 27 20 22 13 14 7 355
194 195 195 195 197 199 200 200 199 199 201 203 204 206 209 210 215 218 220 224 224 222 225 226 226 227 219 213 217 214 213 215 214 218 220 217 226 230 224 234 220 170 144 125 98 58 21 286 259 262 266 249 232 235 266 278 277 283 286 285 263 208 196 233 233 238 244 262 260 103 57 24 40 23 2 24 23 24 30 22 22 17 14 11 7
195 195 196 197 197 199 199 199 201 201 201 203 205 209 211 212 217 220 221 228 230 224 224 223 222 224 220 216 214 210 212 217 214 216 222 222 230 233 221 201 171 150 150 156 197 222 191 214 235 234 272 276 250 201 193 265 290 308 296 257 260 246 202 221 194 186 258 290 231 107 76 3 53 36 358 19 18 6 26 26 20 19 16 13 12
197 196 197 197 198 199 199 199 200 202 202 203 205 208 210 211 213 217 219 223 225 220 219 218 219 222 221 219 213 209 211 214 213 214 218 220 221 221 205 180 168 163 175 195 215 215 204 213 215 205 239 283 293 264 213 250 288 314 298 282 267 259 0 320 221 155 293 282 236 134 108 226 91 51 352 6 14 359 18 30 23 19 19 18 18
197 198 198 198 199 198 198 199 200 202 203 203 204 206 208 209 208 209 212 215 217 216 217 220 220 223 225 222 216 211 209 206 205 206 207 206 205 198 183 175 174 176 189 205 197 201 220 224 215 217 228 253 287 291 284 255 255 285 275 284 280 273 324 317 306 34 297 294 292 283 221 156 56 30 151 22 0 22 7 12 18 11 22 20 21
198 198 200 199 199 198 197 198 199 201 204 203 204 205 206 209 210 212 215 217 221 219 219 224 224 224 222 216 211 204 200 204 201 195 193 194 193 187 180 179 186 193 203 209 204 217 227 217 211 222 224 223 238 265 275 258 232 240 245 250 259 278 312 312 309 315 257 273 306 306 241 159 53 290 268 337 260 99 3 340 348 335 358 20 19
199 199 200 200 199 198 197 198 199 201 203 203 203 203 205 207 210 215 217 219 224 223 219 220 219 219 216 208 204 194 188 195 195 188 189 192 189 187 185 188 197 204 208 212 220 233 233 203 206 220 203 203 214 245 280 289 271 235 185 238 255 240 255 255 330 332 302 268 253 259 248 218 24 288 300 328 321 21 333 274 329 316 291 304 330
200 198 199 199 198 198 197 197 199 201 201 201 201 202 203 205 207 210 214 218 222 223 219 214 210 209 209 204 197 189 183 187 191 190 192 195 193 192 191 195 202 204 213 226 228 226 223 214 215 217 210 217 213 232 266 276 273 265 114 138 262 236 257 260 164 253 281 300 284 255 250 285 305 263 227 295 307 337 316 282 315 292 274 282 269
199 198 198 198 197 197 197 197 198 199 200 200 199 201 202 203 206 208 211 215 216 218 218 211 204 201 202 199 193 191 187 187 191 195 201 204 201 198 196 199 205 211 222 236 235 223 214 217 224 224 219 223 214 216 235 237 262 295 91 147 255 269 292 297 268 251 265 299 290 294 285 282 302 305 297 299 311 324 308 302 303 283 272 283 274
198 197 196 197 197 196 196 197 198 198 199 199 199 201 202 204 206 206 208 213 213 213 212 209 204 199 200 200 197 194 190 193 198 199 205 210 208 205 204 207 212 220 229 235 237 233 219 208 214 224 220 219 220 216 225 229 235 271 231 180 210 246 228 265 283 298 326 289 281 292 292 310 329 324 310 301 286 281 276 269 270 268 280 290 281